Location: Slave Lake
(55.2830°N, 114.7830°W)
Time: 01:08:08
(UTC-07:00)

Amateur Radio Satellites - All Passes

Search period start: 04 December 2016 00:38
Search period end: 05 December 2016 00:38
Location: Slave Lake, 55.2830°N, 114.7830°W

Satellite Date Start Highest point End Downlink Frequencies (MHz)
Time Altitude Azimuth
BEESAT 04 Dec 00:38:47 00:42:18 21° 54° (NE) 00:45:50 436.000
NANOSAT C BR1 04 Dec 00:39:04 00:43:21 76° 103° (ESE) 00:47:36 145.865
QB50P2 04 Dec 00:42:29 00:46:47 90° 227° (SW) 00:51:02 145.880/145.840
POLYITAN 1 04 Dec 00:43:06 00:47:24 87° 106° (ESE) 00:51:38 437.675
O/OREOS (USA 219) 04 Dec 00:52:14 00:56:12 29° 42° (NE) 01:00:07 437.305
QB50P1 04 Dec 00:57:00 01:01:17 72° 288° (WNW) 01:05:31 145.935-145.965
SO-50 04 Dec 00:59:03 01:03:08 28° 349° (N) 01:07:08 436.795
DUCHIFAT 1 04 Dec 01:02:39 01:06:55 73° 288° (WNW) 01:11:07 145.980
CUBEBUG 1 04 Dec 01:02:59 01:05:16 14° 275° (W) 01:07:33 437.445
ITUPSAT 1 04 Dec 01:03:58 01:08:06 30° 59° (ENE) 01:12:14 437.325
Oscar 19 04 Dec 01:06:08 01:09:59 20° 88° (E) 01:13:48 437.125/150
VELOX 1 04 Dec 01:06:32 01:09:28 17° 272° (W) 01:12:26 145.980
UNISAT 6 04 Dec 01:07:16 01:09:49 15° 309° (NW) 01:12:20 437.425
JAS-2 04 Dec 01:10:13 01:15:20 56° 294° (WNW) 01:20:26 435.910
POPSAT HIP 1 04 Dec 01:18:24 01:22:32 48° 293° (WNW) 01:26:37 437.405
DX 1 04 Dec 01:27:58 01:30:53 17° 271° (W) 01:33:51 434.975-435.025
Cosmos 2499 04 Dec 01:36:16 01:44:53 76° 97° (E) 01:53:48 435.465 / 435.565
UKube-1 04 Dec 01:39:59 01:42:51 17° 271° (W) 01:45:44 .
AUBIESAT-1 04 Dec 01:44:56 01:49:10 87° 251° (WSW) 01:53:41 437.475
TISAT 1 04 Dec 01:51:09 01:55:04 35° 263° (W) 01:59:01 437.305
M-CUBED/EXP-1 PRIME 04 Dec 01:55:14 01:59:22 62° 252° (WSW) 02:03:51 437.505
MOZHAYETS 4 04 Dec 02:05:41 02:09:35 28° 60° (ENE) 02:13:28
BUGSAT 1 04 Dec 02:09:47 02:13:48 41° 295° (WNW) 02:17:44 437.445
SWISSCUBE 04 Dec 02:10:29 02:15:17 83° 254° (WSW) 02:20:05 437.505
BEESAT 04 Dec 02:14:47 02:19:35 84° 252° (WSW) 02:24:24 436.000
NANOSAT C BR1 04 Dec 02:15:36 02:18:38 19° 304° (NW) 02:21:38 145.865
GONETS M04 04 Dec 02:17:06 02:25:51 79° 284° (WNW) 02:34:37
QB50P2 04 Dec 02:19:17 02:22:01 17° 306° (NW) 02:24:45 145.880/145.840
POLYITAN 1 04 Dec 02:19:50 02:22:39 17° 306° (NW) 02:25:26 437.675
Gurwin Techsat 1B 04 Dec 02:21:36 02:26:40 42° 97° (E) 02:31:42 435.225
O/OREOS (USA 219) 04 Dec 02:31:29 02:35:57 61° 244° (WSW) 02:40:21 437.305
Cosmos 2504 04 Dec 02:33:15 02:33:43 10° 360° (N) 02:34:10 435.465 / 435.565
QB50P1 04 Dec 02:34:06 02:36:21 14° 309° (NW) 02:38:35 145.935-145.965
DUCHIFAT 1 04 Dec 02:39:40 02:41:54 14° 309° (NW) 02:44:07 145.980
SO-50 04 Dec 02:40:42 02:44:47 29° 13° (NNE) 02:48:46 436.795
ITUPSAT 1 04 Dec 02:41:03 02:45:44 54° 259° (W) 02:50:28 437.325
Oscar 19 04 Dec 02:44:43 02:49:56 81° 289° (WNW) 02:55:08 437.125/150
KKS-1 04 Dec 02:52:52 02:56:56 35° 62° (ENE) 03:01:03 437.445
POPSAT HIP 1 04 Dec 02:56:43 02:57:22 10° 313° (NW) 02:58:01 437.405
JAS-2 04 Dec 02:56:49 02:59:26 14° 317° (NW) 03:02:01 435.910
STARS 04 Dec 03:05:54 03:09:35 26° 58° (ENE) 03:13:17 437.465
ITAMSAT 1 04 Dec 03:08:05 03:12:36 29° 93° (E) 03:17:04 435.822/435.867
AO-85 04 Dec 03:20:28 03:24:47 34° 124° (ESE) 03:28:48 145.980
AUBIESAT-1 04 Dec 03:21:50 03:24:17 15° 268° (W) 03:26:50 437.475
Cosmos 2499 04 Dec 03:30:56 03:38:55 38° 302° (WNW) 03:47:05 435.465 / 435.565
M-CUBED/EXP-1 PRIME 04 Dec 03:34:22 03:34:51 10° 273° (W) 03:35:20 437.505
CUBESAT XI-V 04 Dec 03:38:41 03:42:48 34° 62° (ENE) 03:46:58 437.345
MOZHAYETS 4 04 Dec 03:42:02 03:46:32 53° 260° (W) 03:51:03
AO-7 04 Dec 03:43:53 03:51:35 38° 96° (E) 03:59:15 29.400- 29.500
YUBILEINY 04 Dec 03:47:56 03:53:28 18° 36° (NE) 03:58:59 435.215
SWISSCUBE 04 Dec 03:51:06 03:53:50 15° 274° (W) 03:56:36 437.505
BEESAT 04 Dec 03:55:21 03:58:08 15° 274° (W) 04:00:55 436.000
Gurwin Techsat 1B 04 Dec 04:01:40 04:06:40 42° 298° (WNW) 04:11:37 435.225
O/OREOS (USA 219) 04 Dec 04:13:53 04:14:25 10° 264° (W) 04:14:56 437.305
GONETS M04 04 Dec 04:17:10 04:24:17 27° 310° (NW) 04:31:25
SO-50 04 Dec 04:21:24 04:25:59 64° 36° (NE) 04:30:29 436.795
Oscar 19 04 Dec 04:24:56 04:28:36 20° 309° (NW) 04:32:14 437.125/150
Cosmos 2504 04 Dec 04:26:56 04:32:11 16° 33° (NNE) 04:37:23 435.465 / 435.565
KKS-1 04 Dec 04:29:17 04:33:29 39° 262° (W) 04:37:44 437.445
STARS 04 Dec 04:41:19 04:45:41 56° 259° (WSW) 04:50:05 437.465
STRAND 1 04 Dec 04:45:16 04:47:59 15° 45° (NE) 04:50:42 437.568
ITAMSAT 1 04 Dec 04:47:18 04:52:25 58° 294° (WNW) 04:57:29 435.822/435.867
AO-85 04 Dec 05:00:26 05:05:05 60° 323° (NW) 05:09:23 145.980
CUBESAT XI-V 04 Dec 05:15:47 05:20:08 42° 263° (W) 05:24:33 437.345
GOMX 1 04 Dec 05:26:17 05:30:28 22° 88° (E) 05:34:42 467.674
HORYU 2 04 Dec 05:27:26 05:31:15 27° 94° (E) 05:35:02 437.375
Cosmos 2499 04 Dec 05:30:35 05:35:19 15° 331° (NNW) 05:40:05 435.465 / 435.565
AO-7 04 Dec 05:36:39 05:44:59 71° 298° (WNW) 05:53:18 29.400- 29.500
BRITE-PL 04 Dec 05:38:24 05:43:28 48° 98° (E) 05:48:50 437.365/2234.400
Gurwin Techsat 1B 04 Dec 05:43:31 05:45:22 12° 320° (NW) 05:47:13 435.225
YUBILEINY 04 Dec 05:44:37 05:53:05 48° 64° (ENE) 06:01:32 435.215
DOVE 4 04 Dec 05:48:43 05:52:05 17° 84° (E) 05:55:27 437.250
BEESAT 3 04 Dec 05:51:23 05:54:01 17° 117° (ESE) 05:56:41 437.485
LilacSat-2 04 Dec 05:53:38 05:55:56 15° 88° (E) 05:58:14 437.200
NOAA 18 04 Dec 05:56:29 05:59:24 14° 83° (E) 06:02:16 137.9125
AIST 1 04 Dec 05:56:37 05:59:37 17° 59° (ENE) 06:02:36
SO-50 04 Dec 06:02:13 06:06:14 31° 238° (WSW) 06:10:10 436.795
CUTE-I 04 Dec 06:05:14 06:09:29 23° 90° (E) 06:13:42 437.470
BEESAT 2 04 Dec 06:16:03 06:18:26 16° 115° (ESE) 06:20:51 435.950
Cosmos 2504 04 Dec 06:20:13 06:28:38 42° 61° (ENE) 06:36:43 435.465 / 435.565
STRAND 1 04 Dec 06:21:11 06:26:12 56° 67° (ENE) 06:31:14 437.568
Cosmos 2491 04 Dec 06:22:32 06:29:37 29° 77° (ENE) 06:36:40 435.465 / 435.565
GONETS M04 04 Dec 06:22:41 06:25:16 11° 342° (NNW) 06:27:51
ITAMSAT 1 04 Dec 06:28:02 06:30:56 15° 315° (NW) 06:33:50 435.822/435.867
Cubesat XI-IV 04 Dec 06:30:09 06:35:03 34° 95° (E) 06:39:52 437.490
HO-68 04 Dec 06:31:02 06:33:23 12° 76° (ENE) 06:35:45 435.675
NOAA 15 04 Dec 06:34:59 06:39:57 40° 97° (E) 06:44:54 137.62
AO-85 04 Dec 06:42:25 06:46:14 26° 346° (NNW) 06:49:50 145.980
GOMX 1 04 Dec 07:03:43 07:09:07 81° 287° (WNW) 07:14:38 467.674
HORYU 2 04 Dec 07:03:44 07:08:03 49° 294° (WNW) 07:12:19 437.375
RS-15 04 Dec 07:14:17 07:23:45 29° 102° (ESE) 07:33:27 29.354- 29.394
BRITE-PL 04 Dec 07:17:08 07:21:53 38° 297° (WNW) 07:26:55 437.365/2234.400
SEEDS 04 Dec 07:20:48 07:22:01 11° 83° (E) 07:23:14 437.485
CINEMA 3 04 Dec 07:22:44 07:26:57 27° 91° (E) 07:31:01 145.822/145.860
DOVE 4 04 Dec 07:25:15 07:30:37 80° 104° (ESE) 07:35:54 437.250
LilacSat-2 04 Dec 07:26:54 07:30:42 69° 288° (WNW) 07:34:27 437.200
BEESAT 3 04 Dec 07:27:12 07:31:09 88° 318° (NW) 07:35:09 437.485
AO-7 04 Dec 07:29:53 07:36:36 28° 323° (NW) 07:43:20 29.400- 29.500
PRISM 04 Dec 07:29:53 07:33:06 23° 58° (ENE) 07:36:20 437.425
Cosmos 2499 04 Dec 07:32:56 07:33:38 10° 4° (N) 07:34:20 435.465 / 435.565
AIST 1 04 Dec 07:33:24 07:37:50 83° 260° (W) 07:42:15
NOAA 18 04 Dec 07:35:34 07:41:08 68° 105° (ESE) 07:46:39 137.9125
COMPASS 1 04 Dec 07:35:36 07:36:34 11° 83° (E) 07:37:32 437.405
YUBILEINY 04 Dec 07:41:39 07:50:13 58° 269° (W) 07:58:45 435.215
CUTE-I 04 Dec 07:44:45 07:50:07 74° 291° (WNW) 07:55:25 437.470
BEESAT 2 04 Dec 07:51:40 07:55:39 83° 135° (SE) 07:59:41 435.950
TIGRISAT 04 Dec 07:55:04 07:57:30 14° 50° (NE) 07:59:57 435.000
ANTELSAT 04 Dec 07:55:46 07:58:22 15° 50° (NE) 08:00:57 437.575/2403.000
CUBEBUG 2 04 Dec 07:55:56 07:58:46 16° 86° (E) 08:01:32 437.445
STRAND 1 04 Dec 08:01:14 08:05:42 29° 267° (W) 08:10:11 437.568
CUTE 1.7 + AOD 2 04 Dec 08:06:59 08:10:56 37° 97° (E) 08:14:52 437.475
Cubesat XI-IV 04 Dec 08:10:09 08:15:21 51° 296° (WNW) 08:20:29 437.490
Cosmos 2504 04 Dec 08:13:49 08:22:38 67° 266° (W) 08:31:05 435.465 / 435.565
NOAA 15 04 Dec 08:14:50 08:19:49 44° 298° (WNW) 08:24:47 137.62
HO-68 04 Dec 08:16:02 08:23:01 49° 99° (E) 08:29:58 435.675
Cosmos 2491 04 Dec 08:16:39 08:25:28 88° 281° (W) 08:34:18 435.465 / 435.565
AO-85 04 Dec 08:24:15 08:27:49 24° 10° (N) 08:31:12 145.980
CANX-2 04 Dec 08:24:26 08:28:38 61° 101° (ESE) 08:32:49 2200.000
GONETS M04 04 Dec 08:24:58 08:27:39 11° 18° (NNE) 08:30:18
AIST 2 04 Dec 08:26:02 08:27:08 11° 111° (ESE) 08:28:15 435.215
Oscar 11 04 Dec 08:35:18 08:37:43 15° 86° (E) 08:40:09 145.826/435.025
AAUSAT CUBESAT 2 04 Dec 08:40:51 08:44:37 32° 95° (E) 08:48:21 437.432
HORYU 2 04 Dec 08:42:18 08:43:39 11° 314° (NW) 08:45:00 437.375
UWE-3 04 Dec 08:42:19 08:46:06 27° 92° (E) 08:49:45 435.000/436.395/437.385
GOMX 1 04 Dec 08:42:40 08:46:31 21° 307° (NW) 08:50:26 467.674
SEEDS 04 Dec 08:54:18 08:58:30 73° 103° (ESE) 09:02:41 437.485
UNISAT 6 04 Dec 08:58:27 09:02:48 39° 64° (ENE) 09:07:08 437.425
BRITE-PL 04 Dec 08:58:29 08:59:09 10° 317° (NW) 08:59:50 437.365/2234.400
CINEMA 3 04 Dec 08:59:33 09:04:25 56° 291° (WNW) 09:09:04 145.822/145.860
LilacSat-2 04 Dec 09:02:58 09:04:18 12° 308° (NW) 09:05:36 437.200
DOVE 4 04 Dec 09:03:34 09:07:47 25° 305° (NW) 09:11:59 437.250
PRISM 04 Dec 09:04:05 09:08:06 57° 258° (WSW) 09:12:10 437.425
BEESAT 3 04 Dec 09:05:48 09:09:16 28° 339° (NNW) 09:12:45 437.485
COMPASS 1 04 Dec 09:08:46 09:12:55 71° 103° (ESE) 09:17:04 437.405
POPSAT HIP 1 04 Dec 09:10:22 09:11:09 10° 47° (NE) 09:11:56 437.405
AIST 1 04 Dec 09:12:40 09:14:42 13° 280° (W) 09:16:43
NOAA 18 04 Dec 09:16:42 09:21:27 30° 305° (NW) 09:26:12 137.9125
AO-7 04 Dec 09:22:18 09:26:49 16° 349° (N) 09:31:20 29.400- 29.500
RS-15 04 Dec 09:22:26 09:34:20 76° 129° (SE) 09:46:40 29.354- 29.394
CUTE-I 04 Dec 09:25:46 09:29:23 19° 312° (NW) 09:33:00 437.470
Cosmos 2499 04 Dec 09:25:54 09:31:38 18° 37° (NE) 09:37:13 435.465 / 435.565
ZACube-1 04 Dec 09:28:00 09:32:09 44° 98° (E) 09:36:10 437.345
TIGRISAT 04 Dec 09:28:46 09:33:25 64° 70° (ENE) 09:38:01 435.000
ANTELSAT 04 Dec 09:29:40 09:34:20 68° 70° (ENE) 09:38:56 437.575/2403.000
BEESAT 2 04 Dec 09:30:18 09:33:51 30° 337° (NNW) 09:37:28 435.950
CUBEBUG 2 04 Dec 09:31:29 09:36:03 83° 287° (WNW) 09:40:25 437.445
FUNcube-1 04 Dec 09:36:54 09:41:06 49° 99° (E) 09:45:10 145.935
HUMSAT D 04 Dec 09:39:28 09:41:31 13° 86° (E) 09:43:32 437.325/437.525
YUBILEINY 04 Dec 09:40:13 09:45:02 16° 294° (WNW) 09:49:54 435.215
CUTE 1.7 + AOD 2 04 Dec 09:42:58 09:46:45 33° 296° (WNW) 09:50:31 437.475
JAS-2 04 Dec 09:44:57 09:50:25 34° 59° (ENE) 09:55:24 435.910
Cubesat XI-IV 04 Dec 09:51:39 09:54:20 14° 317° (NW) 09:57:01 437.490
NOAA 15 04 Dec 09:56:24 09:58:24 12° 319° (NW) 10:00:25 137.62
DELFI C3 04 Dec 09:57:31 10:01:05 31° 95° (E) 10:04:39 145.870
BUGSAT 1 04 Dec 09:58:54 10:00:18 11° 48° (NE) 10:01:42 437.445
AIST 2 04 Dec 10:00:42 10:04:47 58° 130° (SE) 10:08:55 435.215
CANX-2 04 Dec 10:00:54 10:04:11 22° 301° (WNW) 10:07:27 2200.000
NANOSAT C BR1 04 Dec 10:03:18 10:06:43 24° 59° (ENE) 10:10:08 145.865
HO-68 04 Dec 10:03:57 10:10:51 51° 301° (WNW) 10:17:44 435.675
AO-85 04 Dec 10:04:56 10:09:03 53° 34° (NE) 10:12:55 145.980
QB50P2 04 Dec 10:06:51 10:10:30 28° 61° (ENE) 10:14:09 145.880/145.840
POLYITAN 1 04 Dec 10:07:29 10:11:06 27° 60° (ENE) 10:14:44 437.675
Cosmos 2504 04 Dec 10:08:31 10:14:21 20° 290° (WNW) 10:20:05 435.465 / 435.565
Oscar 11 04 Dec 10:10:10 10:14:30 88° 292° (WNW) 10:18:49 145.826/435.025
CUSAT 1 04 Dec 10:14:01 10:16:53 42° 100° (E) 10:19:27 437.405
Cosmos 2491 04 Dec 10:16:11 10:23:40 30° 307° (NW) 10:31:10 435.465 / 435.565
AAUSAT CUBESAT 2 04 Dec 10:16:20 10:20:08 36° 295° (WNW) 10:23:57 437.432
UWE-3 04 Dec 10:18:32 10:22:48 47° 293° (WNW) 10:26:55 435.000/436.395/437.385
QB50P1 04 Dec 10:20:53 10:24:44 33° 63° (ENE) 10:28:37 145.935-145.965
GONETS M04 04 Dec 10:21:26 10:28:37 27° 50° (NE) 10:35:46
DUCHIFAT 1 04 Dec 10:26:03 10:29:52 33° 63° (ENE) 10:33:42 145.980
SEEDS 04 Dec 10:30:49 10:33:47 19° 303° (WNW) 10:36:45 437.485
UNISAT 6 04 Dec 10:35:12 10:39:34 37° 264° (W) 10:43:53 437.425
CINEMA 3 04 Dec 10:38:08 10:40:33 14° 313° (NW) 10:42:55 145.822/145.860
DANDE 04 Dec 10:39:22 10:43:05 29° 98° (E) 10:46:04 436.750
POPSAT HIP 1 04 Dec 10:41:51 10:45:59 48° 68° (ENE) 10:50:09 437.405
BEESAT 3 04 Dec 10:44:54 10:47:58 21° 2° (N) 10:51:03 437.485
COMPASS 1 04 Dec 10:45:06 10:48:04 19° 303° (WNW) 10:51:02 437.405
Oscar 19 04 Dec 10:53:38 10:56:27 15° 46° (NE) 10:59:17 437.125/150
ZACube-1 04 Dec 11:04:33 11:08:18 29° 299° (WNW) 11:11:59 437.345
TIGRISAT 04 Dec 11:06:46 11:10:29 23° 269° (W) 11:14:11 435.000
CUBEBUG 1 04 Dec 11:06:52 11:08:33 12° 84° (E) 11:10:13 437.445
ANTELSAT 04 Dec 11:07:52 11:11:28 22° 270° (W) 11:15:03 437.575/2403.000
CUBEBUG 2 04 Dec 11:09:10 11:12:00 17° 308° (NW) 11:14:47 437.445
BEESAT 2 04 Dec 11:09:36 11:12:43 21° 1° (N) 11:15:50 435.950
AO-7 04 Dec 11:11:38 11:16:32 17° 17° (NNE) 11:21:27 29.400- 29.500
FUNcube-1 04 Dec 11:13:32 11:17:08 27° 300° (WNW) 11:20:41 145.935
HUMSAT D 04 Dec 11:13:39 11:17:47 89° 279° (W) 11:21:52 437.325/437.525
Cosmos 2499 04 Dec 11:18:56 11:27:28 49° 65° (ENE) 11:35:30 435.465 / 435.565
JAS-2 04 Dec 11:29:08 11:35:23 59° 258° (WSW) 11:40:58 435.910
BUGSAT 1 04 Dec 11:30:39 11:34:47 54° 69° (ENE) 11:38:59 437.445
DELFI C3 04 Dec 11:32:20 11:35:58 35° 295° (WNW) 11:39:36 145.870
RS-15 04 Dec 11:35:35 11:47:38 62° 339° (NNW) 11:59:59 29.354- 29.394
NANOSAT C BR1 04 Dec 11:37:55 11:42:08 58° 258° (WSW) 11:46:24 145.865
AIST 2 04 Dec 11:39:35 11:43:28 37° 332° (NNW) 11:47:26 435.215
QB50P2 04 Dec 11:41:58 11:46:07 48° 260° (W) 11:50:19 145.880/145.840
POLYITAN 1 04 Dec 11:42:31 11:46:42 50° 260° (W) 11:50:55 437.675
AO-85 04 Dec 11:45:40 11:49:18 32° 237° (WSW) 11:52:47 145.980
Oscar 11 04 Dec 11:47:21 11:50:05 17° 306° (NW) 11:52:49 145.826/435.025
HO-68 04 Dec 11:52:26 11:57:08 19° 325° (NW) 12:01:49 435.675
ESTCUBE 1 04 Dec 11:55:15 11:59:35 43° 98° (E) 12:03:53 437.505/2401.250
50 SAT 04 Dec 11:55:28 11:57:41 16° 90° (E) 11:59:54 437.505
QB50P1 04 Dec 11:56:28 12:00:29 38° 263° (W) 12:04:32 145.935-145.965
UWE-3 04 Dec 11:57:29 11:58:15 10° 314° (NW) 11:58:59 435.000/436.395/437.385
CUSAT 1 04 Dec 11:58:01 11:58:59 11° 298° (WNW) 11:59:56 437.405
SPROUT 04 Dec 11:59:19 12:02:10 17° 88° (E) 12:05:01 437.525
DUCHIFAT 1 04 Dec 12:01:30 12:05:30 39° 262° (W) 12:09:32 145.980
AISAT 04 Dec 12:10:11 12:14:09 30° 94° (E) 12:18:06 437.250
Gurwin Techsat 1B 04 Dec 12:11:19 12:15:50 29° 56° (NE) 12:20:21 435.225
GONETS M04 04 Dec 12:18:14 12:27:01 80° 77° (ENE) 12:35:46
POPSAT HIP 1 04 Dec 12:18:22 12:22:00 26° 267° (W) 12:25:39 437.405
Cosmos 2491 04 Dec 12:21:08 12:24:26 12° 339° (NNW) 12:27:43 435.465 / 435.565
DANDE 04 Dec 12:22:10 12:25:46 28° 291° (WNW) 12:28:41 436.750
BEESAT 3 04 Dec 12:22:57 12:26:36 33° 26° (NNE) 12:30:15 437.485
PCSat 04 Dec 12:27:40 12:32:34 35° 117° (ESE) 12:37:28 145.827
Oscar 19 04 Dec 12:29:48 12:34:50 58° 67° (ENE) 12:39:55 437.125/150
CUBEBUG 1 04 Dec 12:41:12 12:45:40 72° 104° (ESE) 12:50:06 437.445
VELOX 1 04 Dec 12:47:01 12:51:28 58° 102° (ESE) 12:55:52 145.980
BEESAT 2 04 Dec 12:47:54 12:51:33 31° 24° (NNE) 12:55:12 435.950
HUMSAT D 04 Dec 12:50:22 12:52:51 16° 306° (NW) 12:55:18 437.325/437.525
ITAMSAT 1 04 Dec 12:55:41 12:59:29 21° 51° (NE) 13:03:19 435.822/435.867
AO-7 04 Dec 12:59:51 13:07:01 34° 43° (NE) 13:14:14 29.400- 29.500
DX 1 04 Dec 13:06:43 13:11:02 51° 101° (E) 13:15:19 434.975-435.025
BUGSAT 1 04 Dec 13:07:04 13:10:28 23° 268° (W) 13:13:54 437.445
Cosmos 2499 04 Dec 13:12:21 13:20:52 56° 270° (W) 13:28:53 435.465 / 435.565
UKube-1 04 Dec 13:17:37 13:21:52 50° 100° (E) 13:26:06 .
JAS-2 04 Dec 13:19:11 13:21:36 12° 278° (W) 13:23:56 435.910
AIST 2 04 Dec 13:19:36 13:22:56 22° 356° (N) 13:26:19 435.215
TISAT 1 04 Dec 13:27:36 13:31:00 23° 92° (E) 13:34:22 437.305
50 SAT 04 Dec 13:27:50 13:31:21 60° 290° (WNW) 13:34:52 437.505
ESTCUBE 1 04 Dec 13:32:17 13:36:19 32° 298° (WNW) 13:40:19 437.505/2401.250
SPROUT 04 Dec 13:34:19 13:38:39 76° 288° (WNW) 13:42:56 437.525
AISAT 04 Dec 13:46:30 13:50:48 45° 294° (WNW) 13:55:04 437.250
Gurwin Techsat 1B 04 Dec 13:50:09 13:55:27 66° 257° (WSW) 14:00:47 435.225
RS-15 04 Dec 13:50:23 14:02:31 57° 11° (N) 14:14:39 29.354- 29.394
BEESAT 3 04 Dec 14:00:33 14:04:32 68° 228° (SW) 14:08:29 437.485
SWISSCUBE 04 Dec 14:04:21 14:07:09 15° 86° (E) 14:09:57 437.505
BEESAT 04 Dec 14:08:36 14:11:24 15° 86° (E) 14:14:10 436.000
Oscar 19 04 Dec 14:10:07 14:14:31 28° 267° (W) 14:18:57 437.125/150
PCSat 04 Dec 14:10:22 14:15:45 63° 318° (NW) 14:21:11 145.827
GONETS M04 04 Dec 14:15:43 14:23:03 32° 281° (W) 14:30:24
CUBEBUG 1 04 Dec 14:18:10 14:21:32 21° 304° (WNW) 14:24:53 437.445
VELOX 1 04 Dec 14:23:58 14:27:39 26° 302° (WNW) 14:31:19 145.980
Cosmos 2491 04 Dec 14:24:44 14:26:49 11° 14° (NNE) 14:28:55 435.465 / 435.565
BEESAT 2 04 Dec 14:25:40 14:29:43 76° 226° (SW) 14:33:45 435.950
ITAMSAT 1 04 Dec 14:33:06 14:38:20 86° 72° (ENE) 14:43:36 435.822/435.867
ITUPSAT 1 04 Dec 14:34:21 14:38:12 24° 91° (E) 14:42:02 437.325
DX 1 04 Dec 14:43:17 14:47:01 28° 301° (WNW) 14:50:45 434.975-435.025
AO-7 04 Dec 14:50:41 14:59:01 89° 62° (ENE) 15:07:26 29.400- 29.500
AUBIESAT-1 04 Dec 14:50:59 14:54:50 25° 98° (E) 14:58:36 437.475
UKube-1 04 Dec 14:54:02 14:57:44 28° 300° (WNW) 15:01:25 .
HORYU 2 04 Dec 14:58:31 15:00:39 13° 48° (NE) 15:02:47 437.375
AIST 2 04 Dec 14:58:51 15:02:33 29° 20° (NNE) 15:06:16 435.215
M-CUBED/EXP-1 PRIME 04 Dec 15:01:23 15:05:44 35° 102° (ESE) 15:10:00 437.505
TISAT 1 04 Dec 15:02:47 15:06:58 55° 292° (WNW) 15:11:05 437.305
Cosmos 2499 04 Dec 15:07:16 15:11:59 16° 294° (WNW) 15:16:35 435.465 / 435.565
GOMX 1 04 Dec 15:07:53 15:09:02 11° 42° (NE) 15:10:12 467.674
SPROUT 04 Dec 15:11:28 15:13:53 15° 308° (NW) 15:16:19 437.525
BRITE-PL 04 Dec 15:20:10 15:23:24 20° 53° (NE) 15:26:48 437.365/2234.400
HO-68 04 Dec 15:24:44 15:26:53 12° 18° (NNE) 15:29:03 435.675
AISAT 04 Dec 15:25:25 15:26:15 10° 315° (NW) 15:27:03 437.250
MOZHAYETS 4 04 Dec 15:29:53 15:33:30 23° 90° (E) 15:37:05
Gurwin Techsat 1B 04 Dec 15:33:59 15:36:28 13° 278° (W) 15:38:58 435.225
BEESAT 3 04 Dec 15:39:45 15:41:27 12° 247° (WSW) 15:43:09 437.485
SWISSCUBE 04 Dec 15:40:54 15:45:42 85° 109° (ESE) 15:50:28 437.505
BEESAT 04 Dec 15:45:08 15:49:56 85° 106° (ESE) 15:54:43 436.000
NOAA 18 04 Dec 15:51:53 15:54:54 15° 42° (NE) 15:57:55 137.9125
PCSat 04 Dec 15:55:28 16:00:08 28° 343° (NNW) 16:04:48 145.827
CUTE-I 04 Dec 15:56:31 16:00:07 19° 48° (NE) 16:03:44 437.470
RS-15 04 Dec 16:04:03 16:16:32 87° 41° (NE) 16:28:49 29.354- 29.394
BEESAT 2 04 Dec 16:04:40 16:06:53 14° 246° (WSW) 16:09:05 435.950
ITUPSAT 1 04 Dec 16:11:43 16:16:26 63° 292° (WNW) 16:21:09 437.325
KKS-1 04 Dec 16:12:46 16:16:29 25° 92° (E) 16:20:10 437.445
ITAMSAT 1 04 Dec 16:14:48 16:18:31 19° 272° (W) 16:22:14 435.822/435.867
Cubesat XI-IV 04 Dec 16:20:55 16:25:14 25° 54° (NE) 16:29:34 437.490
Cosmos 2491 04 Dec 16:21:11 16:28:03 25° 47° (NE) 16:34:53 435.465 / 435.565
NOAA 15 04 Dec 16:23:55 16:28:17 28° 55° (NE) 16:32:42 137.62
STARS 04 Dec 16:24:04 16:26:59 17° 88° (E) 16:29:54 437.465
AUBIESAT-1 04 Dec 16:24:58 16:29:34 61° 298° (WNW) 16:34:04 437.475
HORYU 2 04 Dec 16:31:58 16:36:23 61° 69° (ENE) 16:40:49 437.375
M-CUBED/EXP-1 PRIME 04 Dec 16:35:48 16:40:18 45° 302° (WNW) 16:44:44 437.505
AIST 2 04 Dec 16:37:20 16:41:35 81° 40° (NE) 16:45:49 435.215
TISAT 1 04 Dec 16:40:21 16:41:44 11° 312° (NW) 16:43:07 437.305
GOMX 1 04 Dec 16:41:26 16:45:51 42° 64° (ENE) 16:50:34 467.674
LilacSat-2 04 Dec 16:42:07 16:45:12 23° 61° (ENE) 16:48:16 437.200
AO-7 04 Dec 16:45:56 16:52:52 29° 270° (W) 16:59:53 29.400- 29.500
O/OREOS (USA 219) 04 Dec 16:50:55 16:55:05 36° 110° (ESE) 16:59:15 437.305
CINEMA 3 04 Dec 16:56:50 16:59:16 14° 47° (NE) 17:01:43 145.822/145.860
BRITE-PL 04 Dec 16:56:57 17:01:19 80° 254° (WSW) 17:06:04 437.365/2234.400
DOVE 4 04 Dec 17:00:40 17:05:02 33° 60° (ENE) 17:09:36 437.250
CUBESAT XI-V 04 Dec 17:04:36 17:08:43 30° 94° (E) 17:12:49 437.345
MOZHAYETS 4 04 Dec 17:06:33 17:11:04 61° 291° (WNW) 17:15:34
HO-68 04 Dec 17:06:42 17:12:17 25° 43° (NE) 17:17:53 435.675
SWISSCUBE 04 Dec 17:19:30 17:22:57 20° 307° (NW) 17:26:25 437.505
BEESAT 04 Dec 17:23:43 17:27:12 21° 307° (NW) 17:30:41 436.000
NOAA 18 04 Dec 17:29:06 17:34:27 52° 63° (ENE) 17:39:51 137.9125
CUTE 1.7 + AOD 2 04 Dec 17:33:27 17:35:21 13° 51° (NE) 17:37:16 437.475
CUTE-I 04 Dec 17:34:02 17:39:23 72° 69° (ENE) 17:44:46 437.470
PCSat 04 Dec 17:40:43 17:45:09 25° 9° (N) 17:49:36 145.827
KKS-1 04 Dec 17:48:57 17:53:22 55° 292° (WNW) 17:57:45 437.445
CANX-2 04 Dec 17:49:49 17:52:46 19° 56° (NE) 17:55:42 2200.000
ITUPSAT 1 04 Dec 17:50:52 17:53:27 15° 312° (NW) 17:56:00 437.325
Cubesat XI-IV 04 Dec 17:59:26 18:04:50 79° 254° (WSW) 18:10:16 437.490
STARS 04 Dec 17:59:27 18:03:56 80° 288° (WNW) 18:08:21 437.465
AUBIESAT-1 04 Dec 18:00:23 18:03:10 16° 318° (NW) 18:05:57 437.475
ISS 04 Dec 18:01:53 18:03:55 15° 147° (SSE) 18:05:57 145.825
NOAA 15 04 Dec 18:02:31 18:07:43 68° 256° (WSW) 18:12:59 137.62
AAUSAT CUBESAT 2 04 Dec 18:06:03 18:07:01 11° 49° (NE) 18:07:59 437.432
HORYU 2 04 Dec 18:09:46 18:13:19 23° 268° (W) 18:16:52 437.375
M-CUBED/EXP-1 PRIME 04 Dec 18:11:38 18:13:46 13° 322° (NW) 18:15:54 437.505
UWE-3 04 Dec 18:12:44 18:14:31 12° 48° (NE) 18:16:18 435.000/436.395/437.385
LilacSat-2 04 Dec 18:15:32 18:19:17 48° 260° (W) 18:23:02 437.200
AIST 2 04 Dec 18:16:25 18:19:38 21° 242° (WSW) 18:22:50 435.215
RS-15 04 Dec 18:16:58 18:28:06 42° 249° (WSW) 18:38:59 29.354- 29.394
Cosmos 2491 04 Dec 18:17:59 18:26:44 72° 74° (ENE) 18:35:27 435.465 / 435.565
SEEDS 04 Dec 18:18:28 18:21:35 21° 58° (ENE) 18:24:42 437.485
GOMX 1 04 Dec 18:19:44 18:24:01 36° 266° (W) 18:28:39 467.674
STRAND 1 04 Dec 18:26:43 18:27:54 11° 81° (E) 18:29:04 437.568
O/OREOS (USA 219) 04 Dec 18:30:06 18:34:28 43° 311° (NW) 18:38:49 437.305
CINEMA 3 04 Dec 18:30:34 18:35:25 54° 67° (ENE) 18:40:20 145.822/145.860
COMPASS 1 04 Dec 18:32:08 18:35:09 20° 57° (ENE) 18:38:10 437.405
DOVE 4 04 Dec 18:37:46 18:42:31 52° 262° (W) 18:47:35 437.250
BRITE-PL 04 Dec 18:38:41 18:40:47 13° 278° (W) 18:42:57 437.365/2234.400
CUBESAT XI-V 04 Dec 18:41:49 18:46:18 47° 293° (WNW) 18:50:46 437.345
MOZHAYETS 4 04 Dec 18:45:13 18:47:24 13° 311° (NW) 18:49:36
HO-68 04 Dec 18:51:54 18:59:03 74° 66° (ENE) 19:06:15 435.675
YUBILEINY 04 Dec 18:55:29 19:03:18 39° 83° (E) 19:11:11 435.215
ZACube-1 04 Dec 18:56:09 18:59:02 17° 54° (NE) 19:01:53 437.345
CUBEBUG 2 04 Dec 19:00:03 19:04:18 34° 63° (ENE) 19:08:32 437.445
FUNcube-1 04 Dec 19:04:35 19:07:38 18° 55° (NE) 19:10:38 145.935
CUTE 1.7 + AOD 2 04 Dec 19:06:16 19:10:27 67° 72° (ENE) 19:14:39 437.475
Cosmos 2504 04 Dec 19:08:56 19:15:37 27° 75° (ENE) 19:22:30 435.465 / 435.565
NOAA 18 04 Dec 19:10:15 19:15:20 36° 264° (W) 19:20:28 137.9125
CUTE-I 04 Dec 19:15:40 19:19:59 24° 270° (W) 19:24:19 437.470
CANX-2 04 Dec 19:23:56 19:28:10 77° 258° (WSW) 19:32:24 2200.000
PCSat 04 Dec 19:24:38 19:29:51 44° 33° (NNE) 19:35:02 145.827
KKS-1 04 Dec 19:27:12 19:29:03 12° 313° (NW) 19:30:54 437.445
Oscar 11 04 Dec 19:36:26 19:40:07 28° 61° (ENE) 19:43:48 145.826/435.025
ISS 04 Dec 19:36:44 19:39:49 36° 167° (SSE) 19:42:54 145.825
STARS 04 Dec 19:36:53 19:39:38 16° 308° (NW) 19:42:22 437.465
AAUSAT CUBESAT 2 04 Dec 19:37:38 19:41:39 54° 69° (ENE) 19:45:41 437.432
Cubesat XI-IV 04 Dec 19:42:30 19:45:49 16° 275° (W) 19:49:09 437.490
UWE-3 04 Dec 19:45:32 19:50:04 53° 69° (ENE) 19:54:33 435.000/436.395/437.385
NOAA 15 04 Dec 19:46:03 19:48:32 13° 277° (W) 19:51:03 137.62
SEEDS 04 Dec 19:52:46 19:56:55 65° 258° (WSW) 20:01:05 437.485
STRAND 1 04 Dec 20:03:10 20:08:14 57° 101° (ESE) 20:13:15 437.568
COMPASS 1 04 Dec 20:06:12 20:10:19 68° 257° (WSW) 20:14:28 437.405
CINEMA 3 04 Dec 20:08:27 20:12:48 30° 268° (W) 20:17:14 145.822/145.860
AIST 1 04 Dec 20:10:10 20:14:10 38° 92° (E) 20:18:14
O/OREOS (USA 219) 04 Dec 20:12:28 20:15:04 15° 335° (NNW) 20:17:39 437.305
Cosmos 2491 04 Dec 20:15:23 20:23:02 36° 278° (W) 20:30:41 435.465 / 435.565
CUBESAT XI-V 04 Dec 20:21:19 20:22:40 11° 314° (NW) 20:24:00 437.345
SO-50 04 Dec 20:24:10 20:26:56 16° 113° (ESE) 20:29:41 436.795
ZACube-1 04 Dec 20:30:10 20:34:43 83° 72° (ENE) 20:39:13 437.345
RS-15 04 Dec 20:34:45 20:36:41 10° 276° (W) 20:38:37 29.354- 29.394
CUBEBUG 2 04 Dec 20:36:15 20:40:50 45° 262° (W) 20:45:22 437.445
CUSAT 1 04 Dec 20:36:21 20:39:29 67° 75° (ENE) 20:43:24 437.405
HUMSAT D 04 Dec 20:36:53 20:40:20 25° 61° (ENE) 20:43:45 437.325/437.525
FUNcube-1 04 Dec 20:38:47 20:43:20 89° 254° (WSW) 20:47:50 145.935
PRISM 04 Dec 20:39:34 20:41:25 13° 86° (E) 20:43:15 437.425
HO-68 04 Dec 20:41:10 20:47:25 32° 268° (W) 20:53:46 435.675
CUTE 1.7 + AOD 2 04 Dec 20:43:45 20:46:44 19° 271° (W) 20:49:45 437.475
DELFI C3 04 Dec 20:49:48 20:53:34 48° 69° (ENE) 20:57:23 145.870
YUBILEINY 04 Dec 20:51:01 20:59:42 67° 288° (WNW) 21:08:29 435.215
Cosmos 2504 04 Dec 20:59:20 21:07:49 85° 100° (E) 21:16:47 435.465 / 435.565
CANX-2 04 Dec 21:03:12 21:04:47 12° 276° (W) 21:06:22 2200.000
DANDE 04 Dec 21:08:02 21:10:26 30° 70° (ENE) 21:13:01 436.750
PCSat 04 Dec 21:08:08 21:13:29 59° 236° (SW) 21:18:48 145.827
Oscar 11 04 Dec 21:11:55 21:16:06 47° 261° (W) 21:20:18 145.826/435.025
ISS 04 Dec 21:12:49 21:15:59 42° 186° (S) 21:19:09 145.825
AAUSAT CUBESAT 2 04 Dec 21:14:15 21:17:26 22° 269° (W) 21:20:39 437.432
UWE-3 04 Dec 21:22:50 21:26:47 27° 268° (W) 21:30:43 435.000/436.395/437.385
ESTCUBE 1 04 Dec 21:26:46 21:29:49 18° 54° (NE) 21:32:52 437.505/2401.250
AISAT 04 Dec 21:40:37 21:42:49 14° 49° (NE) 21:45:01 437.250
STRAND 1 04 Dec 21:42:45 21:47:11 31° 302° (WNW) 21:51:37 437.568
COMPASS 1 04 Dec 21:46:24 21:46:42 10° 277° (W) 21:47:00 437.405
AIST 1 04 Dec 21:47:57 21:51:51 32° 293° (WNW) 21:55:48
SO-50 04 Dec 22:01:58 22:06:41 70° 133° (SE) 22:11:21 436.795
ZACube-1 04 Dec 22:08:39 22:11:35 17° 273° (W) 22:14:29 437.345
CUBEBUG 1 04 Dec 22:08:48 22:12:22 25° 58° (ENE) 22:15:58 437.445
HUMSAT D 04 Dec 22:11:37 22:15:44 51° 260° (W) 22:19:49 437.325/437.525
PRISM 04 Dec 22:13:13 22:17:24 83° 106° (ESE) 22:21:34 437.425
VELOX 1 04 Dec 22:16:03 22:19:28 22° 56° (ENE) 22:22:56 145.980
FUNcube-1 04 Dec 22:17:36 22:20:14 15° 274° (W) 22:22:49 145.935
UNISAT 6 04 Dec 22:19:25 22:23:21 29° 93° (E) 22:27:12 437.425
CUSAT 1 04 Dec 22:19:51 22:21:09 12° 269° (W) 22:22:35 437.405
DELFI C3 04 Dec 22:25:31 22:28:38 22° 268° (W) 22:31:48 145.870
JAS-2 04 Dec 22:32:21 22:33:52 11° 81° (E) 22:35:23 435.910
DX 1 04 Dec 22:34:26 22:37:37 20° 55° (NE) 22:40:50 434.975-435.025
50 SAT 04 Dec 22:37:27 22:40:10 21° 61° (ENE) 22:42:54 437.505
UKube-1 04 Dec 22:44:30 22:47:36 20° 55° (NE) 22:50:42 .
ISS 04 Dec 22:49:24 22:52:02 22° 206° (SSW) 22:54:39 145.825
TIGRISAT 04 Dec 22:49:41 22:54:03 50° 99° (E) 22:58:18 435.000
ANTELSAT 04 Dec 22:50:45 22:55:10 53° 100° (E) 22:59:26 437.575/2403.000
DANDE 04 Dec 22:51:35 22:52:56 13° 267° (W) 22:54:19 436.750
YUBILEINY 04 Dec 22:51:52 22:58:31 23° 315° (NW) 23:05:14 435.215
PCSat 04 Dec 22:53:25 22:55:49 13° 257° (WSW) 22:58:13 145.827
Cosmos 2504 04 Dec 22:54:46 23:02:22 34° 305° (NW) 23:10:16 435.465 / 435.565
SPROUT 04 Dec 22:59:10 23:03:01 32° 63° (ENE) 23:06:53 437.525
ESTCUBE 1 04 Dec 23:01:35 23:06:04 89° 255° (WSW) 23:10:36 437.505/2401.250
AISAT 04 Dec 23:14:07 23:18:29 63° 70° (ENE) 23:22:56 437.250
NANOSAT C BR1 04 Dec 23:16:01 23:18:26 15° 87° (E) 23:20:50 145.865
QB50P2 04 Dec 23:20:06 23:23:03 18° 89° (E) 23:25:59 145.880/145.840
POLYITAN 1 04 Dec 23:20:45 23:23:36 17° 88° (E) 23:26:26 437.675
QB50P1 04 Dec 23:33:55 23:37:17 22° 91° (E) 23:40:36 145.935-145.965
O/OREOS (USA 219) 04 Dec 23:35:18 23:37:59 15° 26° (NNE) 23:40:38 437.305
GONETS M04 04 Dec 23:35:30 23:41:17 20° 70° (ENE) 23:47:02
DUCHIFAT 1 04 Dec 23:38:22 23:41:39 21° 91° (E) 23:44:53 145.980
SO-50 04 Dec 23:43:03 23:47:29 39° 335° (NNW) 23:51:51 436.795
CUBEBUG 1 04 Dec 23:44:04 23:48:22 57° 259° (W) 23:52:45 437.445
SWISSCUBE 04 Dec 23:44:43 23:44:55 10° 42° (NE) 23:45:07 437.505
PRISM 04 Dec 23:49:25 23:52:12 18° 305° (NW) 23:54:58 437.425
VELOX 1 04 Dec 23:51:09 23:55:33 68° 256° (WSW) 00:00:01 145.980
POPSAT HIP 1 04 Dec 23:55:00 23:58:53 32° 95° (E) 00:02:42 437.405
UNISAT 6 04 Dec 23:55:58 00:00:15 44° 294° (WNW) 00:04:25 437.425
Cosmos 2499 05 Dec 00:04:49 00:12:05 31° 78° (ENE) 00:19:30 435.465 / 435.565
DX 1 05 Dec 00:09:01 00:13:22 76° 255° (WSW) 00:17:47 434.975-435.025
50 SAT 05 Dec 00:09:53 00:13:16 44° 261° (W) 00:16:41 437.505
AUBIESAT-1 05 Dec 00:10:02 00:13:08 19° 46° (NE) 00:16:22 437.475
ITUPSAT 1 05 Dec 00:12:59 00:15:29 14° 47° (NE) 00:18:00 437.325
JAS-2 05 Dec 00:15:01 00:20:13 63° 103° (ESE) 00:25:25 435.910
UKube-1 05 Dec 00:18:51 00:23:10 78° 253° (WSW) 00:27:32 .
M-CUBED/EXP-1 PRIME 05 Dec 00:20:30 00:24:02 25° 50° (NE) 00:27:46 437.505
TISAT 1 05 Dec 00:25:38 00:29:40 43° 66° (ENE) 00:33:43 437.305
TIGRISAT 05 Dec 00:26:44 00:30:33 28° 300° (WNW) 00:34:17 435.000
ANTELSAT 05 Dec 00:27:53 00:31:38 27° 301° (WNW) 00:35:18 437.575/2403.000
